Find Starlink 4401

NORAD ID: 53483 Int'l Des: 2022-099 Owner: SPXS Country: US Constellation: starlink decayed
LEOCIRCULARRETROGRADE

Re-entered — Oct 7, 2025

正在加载3D地球...

About Starlink 4401

Starlink 4401 (NORAD 53483) is a starlink constellation satellite (v1.5) launched Aug 12, 2022 by SPXS of US. It re-entered the atmosphere on Oct 7, 2025. with a mass of 300.00 kg.

关于 Starlink 4401

正在加载描述...

高度历史

Loading altitude history...

两行轨道根数

1 53483U 22099U 25279.89270591 .09013373 27196-5 16399-3 0 9998
2 53483 97.6324 51.3890 0010034 281.0382 78.9791 16.47053539173627
Epoch: Oct 6, 2025 • Age: 6241 hours

当前状态

Position data unavailable
发射日期 Aug 12, 2022
运行时间 3.8 years
衰减日期 Oct 7, 2025
类型 internet

技术详情

分类 Payload
质量 300.00 kg
干质量 275.00 kg
总质量 300.00 kg
长度 0.20 m
直径 2.80 m
跨度 9.00 m
形状 Box + pan
制造商 SPXS
平台类型 Starlink
阶段状态 Reentered
所有者/国家 SPXS/US

Most Searched